Weather in Kafr el Sheikh

Egypt     31°06′32″N   30°56′33″E
temp.,
°C
wind,
m/s
gust,
m/s
humid.,
%
clouds,
%
prec.,
mm/h
press.,
hPa
HPBL,
m
26 june, sun
sun2623:00+22nw23730 0.0 101162
02:00+21wnw35750 0.0 1011108
05:00+20wnw23750 0.0 101145
08:00+28nw34450 0.0 1011816
11:00+35nnw45210 0.0 10101840
14:00+36nnw88200 0.0 10091843
17:00+32nnw78290 0.0 10101161
20:00+26nnw37550 0.0 1011182
27 june, mon
mon2723:00+24nw38740 0.0 1011214
02:00+23wnw24750 0.0 101070
05:00+22wnw34860 0.0 101073
08:00+29wnw46460 0.0 10101004
11:00+35nw77270 0.0 10092156
14:00+35nnw88250 0.0 10082163
17:00+32nw78300 0.0 10081514
20:00+25nw47620 0.0 1009305
28 june, tue
tue2823:00+22wnw37820 0.0 1009212
02:00+22wnw35830 0.0 1008130
05:00+21w22870 0.0 100833
08:00+28nw33520 0.0 1008804
11:00+34nw43270 0.0 10072029
14:00+36nnw75250 0.0 10062572
17:00+33nnw76340 0.0 10061414
20:00+25nnw47690 0.0 1008305
29 june, wed
wed2923:00+23wnw24880 0.0 1009101
02:00+22wnw22910 0.0 100844
05:00+21wnw22930 0.0 100828
08:00+27wnw22560 0.0 1008781
11:00+34w22260 0.0 10071913
14:00+37nnw64220 0.0 10052897
17:00+31n77390 0.0 10061156
20:00+25n46670 0.0 1008273
30 june, thu
thu3023:00+23nnw22820 0.0 100840
02:00+22nnw11870 0.0 100711
05:00+21nw11930 0.0 100711
08:00+28nw11550 0.0 1008778
11:00+34nw22310 0.0 10071919
14:00+37nnw75270 0.0 10062644
17:00+31nnw88340 0.0 1007977
20:00+25nnw36670 0.0 1008218